SL-24 R/B, 39228

Orbit data source: Space-Track

SL-24 R/B, 39228 is space debris in SSO originally from a launch on Thu, 22 Aug 2013 UTC launched from the Orenburg, Russia (OREN). Debris objects in space refer to the collection of defunct objects orbiting the Earth. Examples of debris include non-operational satellites, rocket bodies, and fragments generated from explosions, collisions, or faulty payload assembly.

Loading next visibility...
Identifier
39228, 2013-042B
Orbit
SSO
Last TLE update
14 hours ago
Origin
Manufacturer
Yuzhnoe
Mission
Spacecraft
Bus & Motor
15A18-BR, Unknown motor
Mass
~1,000 kg wet, ~1,000 kg dry
Launch date (UTC)
2013-08-22 (12 years ago)
Launch vehicle
Unknown
Launch site
Orenburg, Russia (OREN)
Object type
Payload
Rocket body
Debris
Shape & HBR
Cyl, 3 m
Radar Cross Section
10.603 m², Large (>1 m²)

Expand to show TLE details & history

TLE from 14 hours ago
0 SL-24 R/B
1 39228U 13042B   25189.73676994  .00000226  00000-0  60241-4 0  9997
2 39228  97.5494  87.8514 0450449 119.5818 245.1032 14.08429455605950
Epoch: 2025-07-08T17:40Z
TLE epoch observation values (Epoch: 2025-07-08T17:40:56.922Z)
Latitude
-0.00004°
Longitude
-104.31324°
Altitude
1,016.82 km
Speed
7.267 km/s
True Right ascension
05h 51m 24s
True Declination
0° 00' 00"
Sunlit
Object was in daylight at epoch
Visualization orbit readout
Latitude
52.72608°
Longitude
86.15708°
Altitude
550.571 km
Speed
7.759 km/s
Apparent Right ascension
11h 54m 30s
Apparent Declination
36° 42' 27"
Sunlit
Object is in daylight
Visualization observer readout
Local Sidereal Time
20:03:23
Azimuth
317.211° NNW
Elevation
3.194°
Doppler factor
1
Orbital elements
Apogee altitude
1,187.99 km
Perigee altitude
535.74 km
Semi-major axis
7,240.002 km
Eccentricity
0.04504
Inclination
97.5494°
RAAN
87.8514°
Arg. of periapsis
119.5818°
True anomaly
Unknown
Mean anomaly
245.1032°
Eccentric anomaly
Unknown
Mean motion
3.52318 °/min
Orbital period
102.18 mins
BSTAR
0.000060241
Loading maneuver chart data...
Loading SW <> Apogee altitude chart data...
Loading historical data...
Loading historical data...
Loading historical data...
Loading historical data...
Loading historical data...
Loading historical data...
Loading historical data...
Other satellites on launch #42 in the year 2013 (2013-08-22 UTC)

SL-24 R/B Visibility forecast

Observer location: undefined°, undefined°

Span
Click to sort rows by Start time (UTC) header in descending order
Start Az.
Max El. time (UTC)
Max El. Az.
Max El.
End time (UTC)
End Az.
5 mins2025-07-09 16:00:48.765Z102.522° ESE2025-07-09 16:03:48.765Z62.873° ENE17.038°2025-07-09 16:05:48.765Z34.803° NE
8 mins2025-07-09 17:40:48.765Z191.373° SSW2025-07-09 17:44:48.765Z276.559° WNW37.066°2025-07-09 17:48:48.765Z335.239° NNW
6 mins2025-07-10 06:04:48.765Z14.062° NNE2025-07-10 06:06:48.765Z31.455° NE44.413°2025-07-10 06:10:48.765Z191.752° SSW
|